Location: Berkeley
(37.8716°N, 122.2727°W)
Time: 23:34:21
(UTC-08:00)

Envisat - Visible Passes

Search period start: 18 February 2019 00:00
Search period end: 28 February 2019 00:00
Orbit: 764 x 766 km, 98.2° (Epoch: 19 February)

Date Brightness Start Highest point End Pass type
(mag) Time Alt. Az. Time Alt. Az. Time Alt. Az.
18 Feb 2.9 18:46:03 10° SSE 18:51:06 79° ENE 18:56:13 10° N visible
18 Feb 6.3 20:30:06 10° W 20:30:40 10° W 20:31:15 10° W visible
19 Feb 3.6 18:09:59 10° SE 18:14:32 34° ENE 18:19:05 10° N visible
19 Feb 5.2 19:49:26 10° SSW 19:53:33 25° W 19:57:43 10° NW visible
20 Feb 6.4 06:22:12 10° ENE 06:24:38 13° E 06:27:02 10° ESE visible
20 Feb 3.7 19:11:40 10° S 19:16:39 58° W 19:21:40 10° NNW visible
21 Feb 3.0 18:34:57 10° SSE 18:39:55 62° ENE 18:44:57 10° N visible
21 Feb 6.0 20:16:50 10° WSW 20:19:19 14° W 20:21:50 10° WNW visible
22 Feb 4.8 19:37:47 10° SSW 19:42:17 32° W 19:46:48 10° NW visible
23 Feb 3.2 19:00:22 10° S 19:05:26 74° WSW 19:10:31 10° NNW visible
24 Feb 3.2 18:23:55 10° SE 18:28:46 48° ENE 18:33:38 10° N visible
24 Feb 5.7 20:04:39 10° SW 20:08:00 18° W 20:11:23 10° NW visible
25 Feb 4.4 19:26:16 10° SSW 19:31:01 40° W 19:35:48 10° NNW visible
26 Feb 3.0 18:49:09 10° SSE 18:54:13 87° ENE 18:59:20 10° NNW visible
27 Feb 5.4 19:52:46 10° SW 19:56:42 23° W 20:00:40 10° NW visible
